Location: Bakov nad Jizerou
(50.4784°N, 14.9394°E)
Time: 17:22:15
(UTC+00:00)

Cosmos 2322 - Pass Details

Date: 30 October 2021
Orbit: 841 x 854 km, 71.0° (Epoch: 04 December)

Event Time Altitude Azimuth Distance (km) Brightness Sun altitude
Rises 17:24:50 0° 199° (SSW) 3,410 7.1 -17.3°
Reaches altitude 10° 17:27:17 10° 197° (SSW) 2,478 6.3 -17.6°
Maximum altitude 17:32:56 70° 115° (ESE) 909 3.6 -18.5°
Enters shadow 17:37:58 14° 34° (NE) 2,246 5.6 -19.3°
